Location: Sternwarte_Laufen
(47.9344°N, 12.9346°E)
Time: 15:15:19
(UTC+02:00)

ISS - Pass Details

Date: 11 May 2026
Orbit: 414 x 424 km, 51.6° (Epoch: 21 May)

Event Time Altitude Azimuth Distance (km) Brightness Sun altitude
Rises 23:18:37 0° 274° (W) 2,350 0.5 -19.9°
Reaches altitude 10° 23:20:46 10° 281° (W) 1,489 -0.5 -20.0°
Maximum altitude 23:23:59 43° 355° (N) 596 -2.6 -20.3°
Enters shadow 23:26:23 16° 63° (ENE) 1,181 -1.5 -20.4°
